NOAA 16 DEB, 41073

Orbit data source: Space-Track

NOAA 16 DEB, 41073 is space debris in SSO originally from a launch on Thu, 21 Sep 2000 UTC launched from the Air Force Western Test Range (AFWTR). Debris objects in space refer to the collection of defunct objects orbiting the Earth. Examples of debris include non-operational satellites, rocket bodies, and fragments generated from explosions, collisions, or faulty payload assembly.

Loading next visibility...
Identifier
41073, 2000-055AG
Orbit
SSO
Country
Flag of USUS
Related business
Manufacturer
Unknown
Mission
Spacecraft
Bus & Motor
Unknown
Mass
Unknown
Launch date (UTC)
2000-09-21 (26 years ago)
Launch vehicle
Unknown
Launch site
Air Force Western Test Range (AFWTR)
Object type
Payload
Rocket body
Debris
Shape & HBR
Unknown shape, 0.1 m
Radar Cross Section
Small (<0.1 m²)

Expand to show TLE details & history
Last TLE update: 10 hours ago

TLE from 10 hours ago
0 NOAA 16 DEB
1 41073U 00055AG  26133.30174625  .00001857  00000-0  69985-3 0  9999
2 41073  98.7852 246.0558 0016601 276.2666  83.6626 14.32596403542385
Epoch: 2026-05-13T07:14Z
TLE epoch observation values (Epoch: 2026-05-13T07:14:30.876Z)
Latitude
-0.00001°
Longitude
-93.63658°
Altitude
784.701 km
Speed
7.462 km/s
True Right ascension
16h 24m 13s
True Declination
0° 00' 00"
Sunlit
Object was in full shadow at epoch
Visualization orbit readout
Latitude
Unknown
Longitude
Unknown
Altitude
Unknown
Speed
Unknown
Apparent Right ascension
Unknown
Apparent Declination
Unknown
Sunlit
N/A
Visualization observer readout
Local Sidereal Time
01:15:46
Azimuth
Unknown
Elevation
Unknown
Doppler factor
Unknown
Orbital elements
Apogee altitude
792.094 km
Perigee altitude
768.327 km
Semi-major axis
7,158.348 km
Eccentricity
0.00166
Inclination
98.7852°
RAAN
246.0558°
Arg. of periapsis
276.2666°
True anomaly
83.85171°
Mean anomaly
83.6626°
Eccentric anomaly
83.75715°
Mean motion
3.58364 °/min
Orbital period
100.46 mins
BSTAR
0.00069985
Loading maneuver chart data...
Computing Atmospheric mass density...

Documentation

Showing up to 5 results
|